KB2UHF-8 Weather Reports


time (UTC)temp
F
wind
direction
speed
knots
gust
knots
rain 1hr
in
rain 24hr
in
rain mn
in
humidity
%
barometer
mb
20260904041517 75 135 3.5 7.0 0.02 0.47 0.47 96 1012.9
20260904040517 75 113 3.5 6.1 0.01 0.46 0.46 95 1013.2
20260904035517 75 113 4.3 7.8 0.00 0.45 0.45 95 1013.3
20260904034517 75 113 5.2 7.8 0.00 0.45 0.45 95 1013.1
20260904033517 75 113 5.2 9.6 0.00 0.45 0.45 95 1013.2
20260904032516 75 113 6.1 9.6 0.00 0.45 0.45 95 1013.3
20260904031517 75 90 5.2 7.8 0.00 0.45 0.45 95 1013.3
20260904030557 75 90 4.3 7.8 0.00 0.45 0.45 95 1013.2
20260904025538 75 90 4.3 7.0 0.00 0.45 0.45 95 1013.3
20260904024516 75 90 3.5 7.8 0.00 0.45 0.45 94 1013.3
20260904023518 76 113 4.3 7.0 0.00 0.45 0.45 94 1013.2
20260904022516 76 113 5.2 7.8 0.00 0.45 0.45 94 1013.2
20260904021517 76 113 4.3 7.8 0.00 0.45 0.45 94 1013.2
20260904020537 76 113 4.3 7.0 0.00 0.45 0.45 94 1013.2
20260904015517 76 113 4.3 7.8 0.00 0.45 0.45 93 1013.2
20260904014517 76 113 5.2 7.8 0.00 0.45 0.45 94 1012.9
20260904013517 76 113 5.2 7.8 0.00 0.45 0.45 93 1012.8
20260904012517 76 113 4.3 6.1 0.00 0.45 0.45 93 1012.5
20260904011516 76 113 4.3 7.0 0.00 0.45 0.45 93 1012.4
20260904010557 76 113 4.3 7.0 0.00 0.45 0.45 92 1012.3
20260904005516 77 113 4.3 6.1 0.00 0.45 0.45 92 1012.2
20260904004516 77 113 4.3 7.0 0.00 0.45 0.45 91 1012.4
20260904003516 77 90 3.5 6.1 0.00 0.45 0.45 90 1012.5
20260904002516 77 90 2.6 5.2 0.00 0.45 0.45 89 1012.6
20260904001516 78 90 3.5 6.1 0.00 0.45 0.45 89 1012.5
20260904000516 78 113 4.3 7.0 0.00 0.45 0.45 88 1012.6
20260903235536 79 90 3.5 5.2 0.00 0.45 0.45 87 1012.7
20260903234517 79 113 3.5 7.0 0.00 0.45 0.45 87 1012.7
20260903233516 80 113 2.6 7.0 0.00 0.45 0.45 86 1012.7
20260903232516 80 113 4.3 7.0 0.00 0.45 0.45 86 1012.8
20260903231516 80 90 4.3 7.8 0.00 0.45 0.45 85 1012.6
20260903230516 80 113 3.5 6.1 0.00 0.45 0.45 84 1013.1
20260903225517 80 90 3.5 6.1 0.00 0.45 0.45 84 1013.0
20260903224516 80 90 5.2 8.7 0.00 0.45 0.45 83 1013.0
20260903223516 81 90 3.5 6.1 0.00 0.45 0.45 83 1012.8
20260903222516 81 90 2.6 5.2 0.00 0.45 0.45 83 1012.9
20260903221518 81 90 2.6 5.2 0.00 0.45 0.45 81 1012.9
20260903220518 81 0.0 1.7 0.00 0.45 0.45 83 1013.0
20260903215516 80 135 1.7 4.3 0.00 0.45 0.45 83 1013.2
20260903214517 80 158 1.7 4.3 0.00 0.45 0.45 82 1013.1
20260903213516 81 135 3.5 7.0 0.00 0.45 0.45 82 1012.9
20260903212516 81 135 2.6 7.0 0.00 0.45 0.45 81 1013.1
20260903211516 81 135 4.3 9.6 0.00 0.45 0.45 80 1013.0
20260903210516 81 135 2.6 7.0 0.00 0.45 0.45 84 1013.0
20260903205536 80 135 2.6 6.1 0.00 0.45 0.45 83 1013.0
20260903204516 79 135 1.7 3.5 0.00 0.45 0.45 84 1013.1
20260903203536 79 135 3.5 7.8 0.00 0.45 0.45 84 1013.2
20260903202516 79 113 3.5 7.0 0.00 0.45 0.45 83 1013.2
20260903201536 79 113 3.5 5.2 0.00 0.45 0.45 84 1013.2
20260903200516 79 90 1.7 3.5 0.00 0.45 0.45 83 1013.4
20260903195516 79 135 0.9 3.5 0.00 0.45 0.45 83 1013.7
20260903194516 79 0.0 1.7 0.00 0.45 0.45 84 1013.8
20260903193517 79 68 0.9 2.6 0.00 0.45 0.45 85 1013.5
20260903192536 78 0.0 1.7 0.00 0.45 0.45 86 1013.4
20260903191536 78 135 1.7 4.3 0.00 0.45 0.45 85 1013.1
20260903190516 77 135 3.5 7.0 0.00 0.45 0.45 87 1013.0
20260903185516 77 135 4.3 8.7 0.00 0.45 0.45 90 1013.0
20260903184516 76 90 3.5 5.2 0.00 0.45 0.45 91 1013.0
20260903183516 75 90 2.6 6.1 0.00 0.45 0.45 93 1013.2
20260903182516 75 90 0.9 3.5 0.00 0.45 0.45 94 1013.2
20260903181516 74 68 1.7 3.5 0.00 0.45 0.45 95 1013.5
20260903180516 73 135 3.5 7.0 0.00 0.45 0.45 95 1013.0
20260903175516 73 135 4.3 7.8 0.00 0.45 0.45 95 1013.1
20260903174516 73 135 3.5 7.0 0.00 0.45 0.45 97 1013.2
20260903173516 72 135 5.2 8.7 0.00 0.45 0.45 97 1013.0
20260903172516 72 135 4.3 8.7 0.00 0.45 0.45 97 1013.2
20260903171516 72 158 2.6 5.2 0.02 0.45 0.45 98 1013.7
20260903170536 71 158 1.7 4.3 0.04 0.45 0.45 98 1013.5
20260903165516 71 225 1.7 4.3 0.10 0.45 0.45 98 1013.9
20260903164536 70 203 0.9 5.2 0.14 0.45 0.45 98 1014.1
20260903163516 70 135 3.5 7.0 0.14 0.45 0.45 98 1013.8
20260903162516 70 0.0 0.0 0.16 0.45 0.45 97 1014.2
20260903161516 70 158 0.9 4.3 0.16 0.43 0.43 97 1014.4
20260903160516 70 180 2.6 5.2 0.15 0.41 0.41 97 1014.1
20260903155536 70 68 1.7 3.5 0.09 0.35 0.35 97 1013.5
20260903154516 70 135 1.7 3.5 0.06 0.31 0.31 97 1013.6
20260903153516 69 135 4.3 7.8 0.07 0.31 0.31 97 1013.4
20260903152536 69 113 2.6 5.2 0.05 0.29 0.29 97 1014.0
20260903151517 69 0.0 2.6 0.03 0.27 0.27 97 1014.3
20260903150536 70 293 2.6 7.0 0.02 0.26 0.26 97 1014.4
20260903145516 69 135 0.9 2.6 0.03 0.26 0.26 97 1013.8
20260903144516 69 68 1.7 5.2 0.04 0.25 0.25 97 1013.3
20260903143516 70 270 4.3 7.8 0.05 0.24 0.24 97 1013.3
20260903142516 69 248 0.9 2.6 0.09 0.24 0.24 97 1013.4
20260903141516 69 270 1.7 5.2 0.11 0.24 0.24 96 1014.0
20260903140516 69 113 2.6 6.1 0.13 0.24 0.24 96 1013.5
20260903135515 69 90 2.6 3.5 0.16 0.23 0.23 96 1014.1
20260903134516 69 270 1.7 6.1 0.16 0.21 0.21 96 1014.8
20260903133536 70 248 4.3 7.0 0.17 0.19 0.19 96 1015.7
20260903132516 70 248 5.2 9.6 0.14 0.15 0.15 95 1015.9
20260903131536 70 225 6.1 9.6 0.13 0.13 0.13 95 1015.8
20260903130515 70 270 7.0 12.2 0.11 0.11 0.11 94 1015.2
20260903125515 71 248 6.1 11.3 0.07 0.07 0.07 93 1014.9
20260903124516 71 248 6.1 12.2 0.05 0.05 0.05 94 1014.8
20260903123556 71 270 7.0 13.0 0.02 0.02 0.02 94 1014.0
20260903122515 71 270 6.1 13.0 0.01 0.01 0.01 93 1014.2
20260903121536 72 270 4.3 10.4 0.00 0.00 0.00 93 1014.4
20260903120515 72 270 5.2 9.6 0.00 0.00 0.00 94 1014.2
20260903115535 72 270 5.2 9.6 0.00 0.00 0.00 95 1014.1
20260903114535 71 248 1.7 3.5 0.00 0.00 0.00 94 1014.2
20260903113515 72 248 3.5 8.7 0.00 0.00 0.00 94 1014.3
20260903112516 72 225 2.6 5.2 0.00 0.00 0.00 94 1013.7
20260903111516 72 203 0.9 2.6 0.00 0.00 0.00 94 1013.3
20260903110536 72 180 0.9 1.7 0.00 0.00 0.00 94 1013.2
20260903105515 72 225 0.9 2.6 0.00 0.00 0.00 94 1013.3
20260903104515 72 180 1.7 5.2 0.00 0.00 0.00 94 1013.2
20260903103516 72 0.0 0.0 0.00 0.00 0.00 95 1013.0
20260903102515 72 0.0 0.0 0.00 0.00 0.00 95 1012.9
20260903101517 71 0.0 2.6 0.00 0.00 0.00 95 1012.9
20260903100515 71 0.0 1.7 0.00 0.00 0.00 95 1012.8
20260903095515 71 0.0 0.0 0.00 0.00 0.00 95 1012.9
20260903094515 71 0.0 0.0 0.00 0.00 0.00 95 1012.9
20260903093515 70 0.0 0.0 0.00 0.00 0.00 95 1012.9
20260903092515 70 0.0 0.0 0.00 0.00 0.00 95 1012.8
20260903091536 70 0.0 0.0 0.00 0.00 0.00 95 1012.8
20260903090516 70 135 0.9 1.7 0.00 0.00 0.00 95 1012.8
20260903085515 71 135 0.9 2.6 0.00 0.00 0.00 95 1012.9
20260903084515 71 0.0 1.7 0.00 0.00 0.00 95 1013.0
20260903083515 71 135 0.9 1.7 0.00 0.00 0.00 95 1013.1
20260903082515 71 113 1.7 3.5 0.00 0.00 0.00 96 1012.8
20260903081517 70 135 1.7 3.5 0.00 0.00 0.00 96 1012.8
20260903080537 70 135 1.7 3.5 0.00 0.00 0.00 97 1012.6
20260903075537 69 90 1.7 2.6 0.00 0.00 0.00 96 1012.6
20260903074517 70 90 2.6 2.6 0.00 0.00 0.00 95 1012.6
20260903073517 70 113 2.6 5.2 0.00 0.00 0.00 96 1012.8
20260903072517 70 113 2.6 3.5 0.00 0.00 0.00 96 1012.9
20260903071537 69 90 2.6 5.2 0.00 0.00 0.00 97 1012.9
20260903070517 69 90 1.7 2.6 0.00 0.00 0.00 96 1013.0
20260903065517 69 90 1.7 2.6 0.00 0.00 0.00 96 1013.0
20260903064517 69 68 1.7 2.6 0.00 0.00 0.00 96 1013.1
20260903063517 70 90 1.7 2.6 0.00 0.00 0.00 96 1013.2
20260903062517 70 68 2.6 3.5 0.00 0.00 0.00 96 1013.1
20260903061517 70 0.0 2.6 0.00 0.00 0.00 96 1013.0
20260903060517 70 68 0.9 2.6 0.00 0.00 0.00 96 1013.2
20260903055517 70 68 1.7 2.6 0.00 0.00 0.00 96 1013.2
20260903054517 70 68 1.7 2.6 0.00 0.00 0.00 96 1013.3
20260903053517 70 0.0 0.0 0.00 0.00 0.00 96 1013.4
20260903052539 70 0.0 0.0 0.00 0.00 0.00 95 1013.4
20260903051517 70 0.0 0.0 0.00 0.00 0.00 95 1013.4
20260903050517 70 0.0 0.0 0.00 0.00 0.00 95 1013.4
20260903045516 70 0.0 0.0 0.00 0.00 0.00 95 1013.5
20260903044556 70 0.0 0.0 0.00 0.00 0.00 94 1013.4
20260903043536 71 0.0 0.0 0.00 0.00 0.00 94 1013.5
20260903042536 71 0.0 0.0 0.00 0.00 0.00 94 1013.5